Location: Newark
(35.2672°N, 80.7344°W)
Time: 11:13:43
(UTC+00:00)

Transit 2A Rocket - Pass Details

Date: 29 January 2020
Orbit: 591 x 912 km, 66.7° (Epoch: 25 February)

Event Time Altitude Azimuth Distance (km) Brightness Sun altitude
Rises 20:05:42 0° 311° (NW) 3,139 8.2 26.1°
Reaches altitude 10° 20:08:50 10° 290° (WNW) 2,280 7.8 25.7°
Maximum altitude 20:11:57 16° 253° (WSW) 1,945 8.3 25.2°
Drops below altitude 10° 20:15:14 10° 216° (SW) 2,400 9.5 24.8°
Sets 20:18:40 0° 196° (SSW) 3,391 9.4 24.3°
